EDW245Z LEPA-LSZH

Flight info

Callsign EDW245Z
Flight time 1h 30m
Altitude 43000
Route MEROS DCT LAPIT DCT CHELY DCT LUMAS DCT MAXIR DCT LUSOL DCT BODRU DCT OKTET DCT IRMAR DCT KINES DCT VANAS DCT MOBLO DCT LAMUR DCT KORED N871 BERSU
Aircraft A359/H-SDE2E3GHIJ3J4J5LM1ORWXY/LB1D1

Departure

Time 2026-05-06 13:33
Airport Palma de Mallorca Airport (LEPA)

Arrival

Time 2026-05-06 15:03
Airport Zürich Airport (LSZH)
Time Latitude Longitude Altitude Speed Heading
2026-05-06 12:58 39.54952 2.73780 43 ft 0 kts 239°
2026-05-06 13:21 39.54953 2.73784 18 ft 3 kts 239°
2026-05-06 13:21 39.54967 2.73813 24 ft 4 kts 239°
2026-05-06 13:21 39.54981 2.73843 43 ft 4 kts 239°
2026-05-06 13:21 39.54991 2.73870 41 ft 4 kts 267°
2026-05-06 13:22 39.54983 2.73895 42 ft 4 kts 328°
2026-05-06 13:22 39.54965 2.73908 40 ft 0 kts 329°
2026-05-06 13:26 39.54977 2.73898 44 ft 10 kts 329°
2026-05-06 13:27 39.55078 2.73815 44 ft 11 kts 327°
2026-05-06 13:27 39.55139 2.73775 44 ft 10 kts 351°
2026-05-06 13:27 39.55180 2.73816 44 ft 8 kts 51°
2026-05-06 13:27 39.55225 2.73814 44 ft 8 kts 333°
2026-05-06 13:28 39.55278 2.73765 44 ft 11 kts 332°
2026-05-06 13:28 39.55347 2.73716 44 ft 13 kts 329°
2026-05-06 13:28 39.55431 2.73649 44 ft 16 kts 328°
2026-05-06 13:28 39.55533 2.73569 44 ft 19 kts 329°
2026-05-06 13:29 39.55588 2.73526 44 ft 3 kts 330°
2026-05-06 13:29 39.55622 2.73515 44 ft 6 kts 358°
2026-05-06 13:29 39.55666 2.73545 44 ft 9 kts 43°
2026-05-06 13:29 39.55705 2.73617 44 ft 11 kts 58°
2026-05-06 13:30 39.55763 2.73732 44 ft 21 kts 58°
2026-05-06 13:30 39.55844 2.73901 44 ft 23 kts 58°
2026-05-06 13:30 39.55926 2.74077 44 ft 22 kts 58°
2026-05-06 13:30 39.56005 2.74241 44 ft 21 kts 58°
2026-05-06 13:31 39.56081 2.74400 44 ft 21 kts 57°
2026-05-06 13:31 39.56128 2.74446 44 ft 4 kts 15°
2026-05-06 13:31 39.56197 2.74420 44 ft 15 kts 327°
2026-05-06 13:31 39.56241 2.74305 44 ft 16 kts 253°
2026-05-06 13:32 39.56184 2.74169 44 ft 18 kts 239°
2026-05-06 13:32 39.56171 2.74143 44 ft 0 kts 239°
2026-05-06 13:32 39.56159 2.74116 44 ft 18 kts 238°
2026-05-06 13:32 39.55948 2.73676 45 ft 97 kts 238°
2026-05-06 13:33 39.55468 2.72665 44 ft 164 kts 238°
2026-05-06 13:33 39.55296 2.72290 200 ft 166 kts 238°
2026-05-06 13:33 39.55013 2.71665 651 ft 166 kts 238°
2026-05-06 13:33 39.54411 2.70382 1487 ft 173 kts 236°
2026-05-06 13:34 39.53705 2.68952 1888 ft 203 kts 235°
2026-05-06 13:34 39.52915 2.67358 2519 ft 215 kts 236°
2026-05-06 13:34 39.52101 2.65699 3293 ft 221 kts 237°
2026-05-06 13:34 39.51269 2.63994 4099 ft 225 kts 237°
2026-05-06 13:35 39.50384 2.62330 4710 ft 225 kts 229°
2026-05-06 13:35 39.49150 2.61024 4978 ft 243 kts 212°
2026-05-06 13:35 39.47615 2.59861 5006 ft 264 kts 209°
2026-05-06 13:35 39.45987 2.58708 5017 ft 268 kts 207°
2026-05-06 13:36 39.44203 2.57996 5312 ft 272 kts 184°
2026-05-06 13:36 39.42346 2.58419 6231 ft 273 kts 158°
2026-05-06 13:36 39.40626 2.59475 7240 ft 275 kts 154°
2026-05-06 13:36 39.38912 2.60634 8213 ft 281 kts 154°
2026-05-06 13:37 39.37203 2.61854 9169 ft 288 kts 149°
2026-05-06 13:37 39.35629 2.63500 10125 ft 295 kts 139°
2026-05-06 13:37 39.34092 2.65388 10633 ft 317 kts 138°
2026-05-06 13:37 39.32447 2.67447 10984 ft 342 kts 138°
2026-05-06 13:38 39.30709 2.69663 11515 ft 358 kts 135°
2026-05-06 13:38 39.29283 2.72365 12248 ft 371 kts 116°
2026-05-06 13:38 39.28677 2.75637 13029 ft 383 kts 95°
2026-05-06 13:38 39.28625 2.79111 13795 ft 391 kts 90°
2026-05-06 13:39 39.28658 2.82658 14512 ft 397 kts 90°
2026-05-06 13:39 39.28684 2.86250 15276 ft 402 kts 91°
2026-05-06 13:39 39.28702 2.89874 16032 ft 407 kts 91°
2026-05-06 13:39 39.28986 2.93536 16771 ft 414 kts 78°
2026-05-06 13:40 39.29994 2.97033 17510 ft 419 kts 62°
2026-05-06 13:40 39.31422 3.00347 18253 ft 425 kts 59°
2026-05-06 13:40 39.32926 3.03669 18837 ft 432 kts 59°
2026-05-06 13:40 39.34453 3.07049 19467 ft 438 kts 59°
2026-05-06 13:41 39.35971 3.10434 20121 ft 444 kts 60°
2026-05-06 13:41 39.37522 3.13909 20800 ft 449 kts 60°
2026-05-06 13:41 39.39087 3.17427 21471 ft 455 kts 60°
2026-05-06 13:41 39.40670 3.20995 22143 ft 460 kts 60°
2026-05-06 13:42 39.42271 3.24609 22796 ft 466 kts 60°
2026-05-06 13:42 39.43902 3.28262 23433 ft 472 kts 59°
2026-05-06 13:42 39.45595 3.31930 23993 ft 477 kts 59°
2026-05-06 13:42 39.47309 3.35622 24579 ft 481 kts 59°
2026-05-06 13:43 39.49032 3.39349 25139 ft 485 kts 59°
2026-05-06 13:43 39.50770 3.43120 25706 ft 489 kts 59°
2026-05-06 13:43 39.52514 3.46916 26280 ft 493 kts 59°
2026-05-06 13:43 39.53678 3.49454 26668 ft 496 kts 59°
2026-05-06 13:44 39.55448 3.53317 27217 ft 500 kts 59°
2026-05-06 13:44 39.57229 3.57207 27765 ft 504 kts 59°
2026-05-06 13:44 39.59028 3.61144 28316 ft 508 kts 59°
2026-05-06 13:44 39.61419 3.66388 29012 ft 514 kts 59°
2026-05-06 13:45 39.62654 3.69100 29361 ft 516 kts 59°
2026-05-06 13:45 39.66309 3.77136 30307 ft 524 kts 59°
2026-05-06 13:45 39.68162 3.81220 30715 ft 527 kts 59°
2026-05-06 13:46 39.70031 3.85343 31153 ft 530 kts 59°
2026-05-06 13:46 39.71903 3.89477 31535 ft 533 kts 59°
2026-05-06 13:46 39.73785 3.93641 31906 ft 536 kts 59°
2026-05-06 13:46 39.75678 3.97834 32265 ft 539 kts 59°
2026-05-06 13:47 39.77580 4.02053 32613 ft 543 kts 59°
2026-05-06 13:47 39.79496 4.06309 32965 ft 545 kts 59°
2026-05-06 13:47 39.81414 4.10574 33332 ft 546 kts 59°
2026-05-06 13:47 39.83367 4.14809 33837 ft 545 kts 56°
2026-05-06 13:48 39.85788 4.18577 34247 ft 541 kts 40°
2026-05-06 13:48 39.88795 4.21458 34615 ft 534 kts 25°
2026-05-06 13:48 39.92194 4.23286 34949 ft 525 kts 10°
2026-05-06 13:48 39.95751 4.24191 35334 ft 520 kts
2026-05-06 13:49 39.99330 4.24900 35631 ft 521 kts
2026-05-06 13:49 40.02913 4.25641 35946 ft 521 kts
2026-05-06 13:49 40.06489 4.26423 36298 ft 521 kts
2026-05-06 13:49 40.10063 4.27231 36630 ft 521 kts
2026-05-06 13:50 40.13641 4.28055 36973 ft 521 kts
2026-05-06 13:50 40.17165 4.28877 37291 ft 521 kts
2026-05-06 13:50 40.20738 4.29715 37617 ft 521 kts
2026-05-06 13:50 40.24310 4.30557 37917 ft 521 kts
2026-05-06 13:51 40.27878 4.31399 38229 ft 521 kts
2026-05-06 13:51 40.31444 4.32244 38522 ft 521 kts
2026-05-06 13:51 40.35013 4.33090 38775 ft 521 kts
2026-05-06 13:51 40.38576 4.33936 39012 ft 520 kts
2026-05-06 13:52 40.42138 4.34782 39268 ft 520 kts
2026-05-06 13:52 40.45702 4.35630 39467 ft 521 kts
2026-05-06 13:52 40.49272 4.36480 39678 ft 520 kts
2026-05-06 13:52 40.52834 4.37330 39896 ft 520 kts
2026-05-06 13:53 40.56393 4.38180 40104 ft 520 kts
2026-05-06 13:53 40.59956 4.39031 40312 ft 519 kts
2026-05-06 13:53 40.63510 4.39882 40515 ft 519 kts
2026-05-06 13:53 40.67060 4.40732 40718 ft 519 kts
2026-05-06 13:54 40.70612 4.41584 40906 ft 519 kts
2026-05-06 13:54 40.74161 4.42436 41093 ft 518 kts
2026-05-06 13:54 40.77713 4.43289 41277 ft 518 kts
2026-05-06 13:54 40.81260 4.44142 41446 ft 518 kts
2026-05-06 13:55 40.84805 4.44996 41641 ft 518 kts
2026-05-06 13:55 40.88350 4.45850 41806 ft 518 kts
2026-05-06 13:55 40.91890 4.46704 41962 ft 517 kts
2026-05-06 13:55 40.95383 4.47549 42112 ft 517 kts
2026-05-06 13:56 40.98926 4.48406 42267 ft 517 kts
2026-05-06 13:56 41.02463 4.49255 42403 ft 517 kts
2026-05-06 13:56 41.06002 4.50116 42574 ft 517 kts
2026-05-06 13:56 41.09547 4.50985 42705 ft 517 kts
2026-05-06 13:57 41.13081 4.51852 42853 ft 516 kts
2026-05-06 13:57 41.16618 4.52717 42949 ft 517 kts
2026-05-06 13:57 41.23702 4.54446 42958 ft 517 kts
2026-05-06 13:58 41.30785 4.56177 42961 ft 517 kts
2026-05-06 13:58 41.37868 4.57913 42956 ft 517 kts
2026-05-06 13:59 41.44950 4.59652 42961 ft 517 kts
2026-05-06 13:59 41.52027 4.61394 42957 ft 518 kts
2026-05-06 14:00 41.59074 4.63134 42960 ft 518 kts
2026-05-06 14:00 41.66161 4.64886 42959 ft 518 kts
2026-05-06 14:01 41.73178 4.67224 42961 ft 523 kts 18°
2026-05-06 14:01 41.79684 4.71688 42960 ft 527 kts 27°
2026-05-06 14:02 41.86000 4.76718 42954 ft 528 kts 29°
2026-05-06 14:02 41.92281 4.81846 42962 ft 528 kts 29°
2026-05-06 14:03 41.98570 4.86969 42940 ft 528 kts 29°
2026-05-06 14:03 42.04871 4.92076 42956 ft 528 kts 28°
2026-05-06 14:04 42.11168 4.97182 42943 ft 528 kts 29°
2026-05-06 14:04 42.17470 5.02304 42943 ft 529 kts 29°
2026-05-06 14:05 42.23766 5.07435 42963 ft 529 kts 29°
2026-05-06 14:05 42.30020 5.12545 42976 ft 529 kts 29°
2026-05-06 14:06 42.36311 5.17698 42949 ft 529 kts 29°
2026-05-06 14:06 42.42596 5.22858 42949 ft 529 kts 29°
2026-05-06 14:07 42.48881 5.28030 42947 ft 528 kts 29°
2026-05-06 14:07 42.55169 5.33217 42933 ft 528 kts 29°
2026-05-06 14:08 42.61445 5.38406 42941 ft 528 kts 29°
2026-05-06 14:08 42.67717 5.43605 42942 ft 528 kts 29°
2026-05-06 14:09 42.73990 5.48816 42939 ft 528 kts 30°
2026-05-06 14:09 42.80257 5.54035 42938 ft 528 kts 30°
2026-05-06 14:10 42.86276 5.59060 42936 ft 528 kts 30°
2026-05-06 14:10 42.92548 5.64307 42939 ft 528 kts 30°
2026-05-06 14:11 42.98805 5.69556 42926 ft 528 kts 30°
2026-05-06 14:11 43.05064 5.74818 42924 ft 528 kts 30°
2026-05-06 14:12 43.11322 5.80093 42924 ft 528 kts 30°
2026-05-06 14:12 43.17579 5.85380 42916 ft 528 kts 30°
2026-05-06 14:13 43.23835 5.90678 42910 ft 528 kts 30°
2026-05-06 14:13 43.30045 5.95950 42910 ft 529 kts 30°
2026-05-06 14:14 43.36345 6.01148 42891 ft 527 kts 24°
2026-05-06 14:14 43.43234 6.04227 42885 ft 517 kts
2026-05-06 14:15 43.50375 6.05264 42885 ft 516 kts
2026-05-06 14:15 43.57535 6.05952 42884 ft 516 kts
2026-05-06 14:16 43.64698 6.06611 42879 ft 516 kts
2026-05-06 14:16 43.71869 6.07311 42879 ft 515 kts
2026-05-06 14:17 43.78911 6.09346 42865 ft 522 kts 18°
2026-05-06 14:17 43.85541 6.13431 42880 ft 526 kts 23°
2026-05-06 14:18 43.92113 6.17925 42883 ft 526 kts 24°
2026-05-06 14:18 43.98656 6.22469 42884 ft 526 kts 24°
2026-05-06 14:19 44.05209 6.26992 42878 ft 525 kts 24°
2026-05-06 14:19 44.11770 6.31503 42888 ft 525 kts 24°
2026-05-06 14:20 44.18317 6.36011 42892 ft 525 kts 24°
2026-05-06 14:20 44.24862 6.40530 42896 ft 525 kts 25°
2026-05-06 14:21 44.31403 6.45055 42893 ft 524 kts 25°
2026-05-06 14:21 44.37941 6.49585 42891 ft 524 kts 25°
2026-05-06 14:22 44.44473 6.54125 42912 ft 524 kts 25°
2026-05-06 14:22 44.50968 6.58654 42887 ft 525 kts 25°
2026-05-06 14:23 44.57512 6.63226 42890 ft 526 kts 25°
2026-05-06 14:23 44.64055 6.67825 42885 ft 526 kts 25°
2026-05-06 14:24 44.70601 6.72418 42863 ft 525 kts 25°
2026-05-06 14:24 44.77227 6.76758 42865 ft 524 kts 17°
2026-05-06 14:25 44.84307 6.78600 42854 ft 515 kts 357°
2026-05-06 14:25 44.91478 6.78439 42862 ft 516 kts 354°
2026-05-06 14:26 44.98643 6.77915 42860 ft 515 kts 353°
2026-05-06 14:26 45.05809 6.77365 42872 ft 515 kts 353°
2026-05-06 14:27 45.12975 6.76866 42898 ft 515 kts 354°
2026-05-06 14:27 45.20084 6.76394 42908 ft 514 kts 354°
2026-05-06 14:28 45.26382 6.75978 42913 ft 513 kts 354°
2026-05-06 14:28 45.32311 6.75585 42920 ft 512 kts 354°
2026-05-06 14:29 45.39440 6.75114 42932 ft 513 kts 354°
2026-05-06 14:29 45.46566 6.74635 42929 ft 513 kts 354°
2026-05-06 14:30 45.53700 6.74152 42928 ft 513 kts 354°
2026-05-06 14:30 45.60837 6.73661 42930 ft 514 kts 354°
2026-05-06 14:31 45.67974 6.73167 42937 ft 513 kts 354°
2026-05-06 14:31 45.75109 6.72673 42934 ft 513 kts 354°
2026-05-06 14:32 45.78666 6.72607 42611 ft 510 kts
2026-05-06 14:32 45.82126 6.73439 42016 ft 513 kts 15°
2026-05-06 14:32 45.85497 6.75216 41739 ft 519 kts 21°
2026-05-06 14:32 45.88830 6.77275 41475 ft 522 kts 22°
2026-05-06 14:33 45.92144 6.79421 41230 ft 523 kts 23°
2026-05-06 14:33 45.95448 6.81605 40968 ft 523 kts 23°
2026-05-06 14:33 45.98753 6.83803 40719 ft 523 kts 23°
2026-05-06 14:33 46.02039 6.85985 40480 ft 523 kts 23°
2026-05-06 14:34 46.04384 6.87538 40314 ft 524 kts 23°
2026-05-06 14:34 46.07674 6.89711 40077 ft 524 kts 23°
2026-05-06 14:34 46.10994 6.91901 39847 ft 525 kts 23°
2026-05-06 14:34 46.14315 6.94090 39609 ft 525 kts 23°
2026-05-06 14:35 46.17635 6.96280 39389 ft 526 kts 24°
2026-05-06 14:35 46.20960 6.98485 39166 ft 526 kts 23°
2026-05-06 14:35 46.24296 7.00694 38952 ft 527 kts 23°
2026-05-06 14:35 46.27635 7.02902 38725 ft 528 kts 23°
2026-05-06 14:36 46.30973 7.05113 38469 ft 528 kts 23°
2026-05-06 14:36 46.34315 7.07329 38196 ft 529 kts 24°
2026-05-06 14:36 46.37665 7.09555 37947 ft 530 kts 24°
2026-05-06 14:36 46.41014 7.11784 37664 ft 530 kts 24°
2026-05-06 14:37 46.44367 7.14020 37390 ft 531 kts 24°
2026-05-06 14:37 46.47727 7.16264 37131 ft 532 kts 24°
2026-05-06 14:37 46.51086 7.18510 36856 ft 532 kts 24°
2026-05-06 14:37 46.54411 7.20739 36848 ft 516 kts 24°
2026-05-06 14:38 46.57539 7.22840 36898 ft 491 kts 24°
2026-05-06 14:38 46.60614 7.24900 36776 ft 488 kts 23°
2026-05-06 14:38 46.63744 7.26996 36506 ft 503 kts 24°
2026-05-06 14:38 46.66972 7.29163 36308 ft 517 kts 24°
2026-05-06 14:39 46.70280 7.31392 36136 ft 530 kts 24°
2026-05-06 14:39 46.73647 7.33667 35906 ft 536 kts 24°
2026-05-06 14:39 46.77035 7.35960 35652 ft 537 kts 24°
2026-05-06 14:39 46.80411 7.38272 35401 ft 538 kts 25°
2026-05-06 14:40 46.83637 7.41067 35158 ft 539 kts 35°
2026-05-06 14:40 46.86517 7.44556 34727 ft 537 kts 45°
2026-05-06 14:40 46.89041 7.48580 33883 ft 538 kts 51°
2026-05-06 14:40 46.91438 7.52801 32920 ft 540 kts 53°
2026-05-06 14:41 46.93770 7.57110 31992 ft 541 kts 53°
2026-05-06 14:41 46.96081 7.61460 31056 ft 542 kts 54°
2026-05-06 14:41 46.98397 7.65833 30089 ft 545 kts 54°
2026-05-06 14:41 47.00738 7.70234 28983 ft 547 kts 54°
2026-05-06 14:42 47.03075 7.74587 28272 ft 540 kts 53°
2026-05-06 14:42 47.05382 7.78878 27590 ft 533 kts 53°
2026-05-06 14:42 47.07660 7.83116 26898 ft 526 kts 53°
2026-05-06 14:42 47.09908 7.87300 26266 ft 518 kts 53°
2026-05-06 14:43 47.12126 7.91447 25632 ft 510 kts 54°
2026-05-06 14:43 47.14038 7.95745 25130 ft 497 kts 64°
2026-05-06 14:43 47.15563 8.00241 24534 ft 488 kts 67°
2026-05-06 14:43 47.17000 8.04752 23914 ft 481 kts 67°
2026-05-06 14:44 47.18404 8.09182 23310 ft 475 kts 67°
2026-05-06 14:44 47.19790 8.13548 22502 ft 470 kts 67°
2026-05-06 14:44 47.21278 8.17817 21681 ft 468 kts 59°
2026-05-06 14:45 47.25967 8.24126 20148 ft 464 kts 26°
2026-05-06 14:45 47.29013 8.25602 19459 ft 459 kts
2026-05-06 14:45 47.32163 8.25733 18813 ft 451 kts 352°
2026-05-06 14:45 47.35145 8.24524 18164 ft 441 kts 334°
2026-05-06 14:46 47.37674 8.22111 17480 ft 429 kts 315°
2026-05-06 14:46 47.39517 8.18767 16858 ft 415 kts 298°
2026-05-06 14:46 47.40914 8.15095 16253 ft 407 kts 296°
2026-05-06 14:46 47.42455 8.11639 15615 ft 404 kts 307°
2026-05-06 14:47 47.44554 8.08869 14969 ft 405 kts 323°
2026-05-06 14:47 47.47004 8.06838 14284 ft 404 kts 334°
2026-05-06 14:47 47.49735 8.05886 13636 ft 405 kts 355°
2026-05-06 14:47 47.52519 8.06375 12983 ft 403 kts 16°
2026-05-06 14:48 47.54978 8.08250 12481 ft 396 kts 38°
2026-05-06 14:48 47.56777 8.11243 12063 ft 385 kts 60°
2026-05-06 14:48 47.57671 8.14948 11744 ft 386 kts 83°
2026-05-06 14:48 47.57567 8.18845 11433 ft 381 kts 106°
2026-05-06 14:49 47.56489 8.22377 11110 ft 376 kts 129°
2026-05-06 14:49 47.54674 8.24891 10957 ft 339 kts 153°
2026-05-06 14:49 47.52603 8.25956 10871 ft 297 kts 173°
2026-05-06 14:49 47.50729 8.26803 10772 ft 274 kts 152°
2026-05-06 14:50 47.49455 8.28855 10667 ft 277 kts 122°
2026-05-06 14:50 47.48751 8.31540 10545 ft 283 kts 110°
2026-05-06 14:50 47.48280 8.34385 10421 ft 286 kts 105°
2026-05-06 14:50 47.47918 8.37275 10296 ft 287 kts 103°
2026-05-06 14:51 47.47607 8.40202 10172 ft 289 kts 102°
2026-05-06 14:51 47.47324 8.43145 9914 ft 289 kts 101°
2026-05-06 14:51 47.47053 8.46115 9648 ft 300 kts 101°
2026-05-06 14:51 47.46776 8.49216 9485 ft 304 kts 101°
2026-05-06 14:52 47.46510 8.52278 8958 ft 301 kts 100°
2026-05-06 14:52 47.46243 8.55364 8604 ft 304 kts 100°
2026-05-06 14:52 47.45976 8.58455 8439 ft 303 kts 100°
2026-05-06 14:52 47.45714 8.61499 8105 ft 292 kts 100°
2026-05-06 14:53 47.45462 8.64425 7605 ft 295 kts 100°
2026-05-06 14:53 47.45197 8.67450 7322 ft 298 kts 100°
2026-05-06 14:53 47.44932 8.70488 7189 ft 294 kts 100°
2026-05-06 14:53 47.44676 8.73438 6681 ft 286 kts 100°
2026-05-06 14:54 47.44417 8.76378 6411 ft 287 kts 100°
2026-05-06 14:54 47.44173 8.79175 6288 ft 262 kts 99°
2026-05-06 14:54 47.43947 8.81760 6188 ft 247 kts 99°
2026-05-06 14:54 47.43730 8.84217 6070 ft 235 kts 99°
2026-05-06 14:55 47.43506 8.86524 6028 ft 219 kts 102°
2026-05-06 14:55 47.42925 8.88484 5890 ft 200 kts 134°
2026-05-06 14:55 47.41863 8.89569 5786 ft 176 kts 167°
2026-05-06 14:55 47.40732 8.89710 5714 ft 153 kts 195°
2026-05-06 14:56 47.39799 8.89185 5556 ft 135 kts 217°
2026-05-06 14:56 47.39151 8.88269 5407 ft 126 kts 237°
2026-05-06 14:56 47.38790 8.87129 5253 ft 124 kts 254°
2026-05-06 14:56 47.38719 8.85864 5090 ft 125 kts 272°
2026-05-06 14:57 47.38959 8.84625 4959 ft 128 kts 291°
2026-05-06 14:57 47.39492 8.83576 4874 ft 132 kts 310°
2026-05-06 14:57 47.40300 8.82843 4789 ft 139 kts 333°
2026-05-06 14:57 47.41246 8.82477 4699 ft 141 kts 341°
2026-05-06 14:58 47.42210 8.82182 4609 ft 142 kts 341°
2026-05-06 14:58 47.43154 8.81811 4459 ft 139 kts 331°
2026-05-06 14:58 47.43775 8.80808 4212 ft 131 kts 295°
2026-05-06 14:58 47.44057 8.79560 4048 ft 127 kts 276°
2026-05-06 14:59 47.44149 8.78262 4010 ft 127 kts 272°
2026-05-06 14:59 47.44234 8.76955 4026 ft 129 kts 273°
2026-05-06 14:59 47.44329 8.75646 4015 ft 127 kts 272°
2026-05-06 14:59 47.44423 8.74349 4011 ft 127 kts 272°
2026-05-06 15:00 47.44504 8.73200 3908 ft 128 kts 270°
2026-05-06 15:00 47.44599 8.71866 3716 ft 129 kts 272°
2026-05-06 15:00 47.44689 8.70533 3525 ft 133 kts 270°
2026-05-06 15:00 47.44785 8.69164 3296 ft 134 kts 272°
2026-05-06 15:01 47.44891 8.67800 3109 ft 133 kts 273°
2026-05-06 15:01 47.44988 8.66475 2916 ft 130 kts 272°
2026-05-06 15:01 47.45079 8.65173 2728 ft 123 kts 272°
2026-05-06 15:01 47.45168 8.63920 2544 ft 124 kts 272°
2026-05-06 15:02 47.45259 8.62640 2315 ft 127 kts 275°
2026-05-06 15:02 47.45362 8.61333 2129 ft 131 kts 274°
2026-05-06 15:02 47.45457 8.59988 1886 ft 131 kts 274°
2026-05-06 15:02 47.45556 8.58623 1688 ft 135 kts 274°
2026-05-06 15:03 47.45647 8.57262 1503 ft 129 kts 273°
2026-05-06 15:03 47.45737 8.55979 1420 ft 117 kts 276°
2026-05-06 15:03 47.45802 8.55077 1405 ft 48 kts 276°
2026-05-06 15:03 47.45823 8.54744 1404 ft 29 kts 272°
2026-05-06 15:04 47.45805 8.54467 1403 ft 26 kts 255°
2026-05-06 15:04 47.45738 8.54242 1402 ft 24 kts 229°
2026-05-06 15:04 47.45627 8.54249 1399 ft 16 kts 118°
2026-05-06 15:04 47.45587 8.54398 1405 ft 16 kts 111°
2026-05-06 15:05 47.45551 8.54559 1396 ft 17 kts 108°
2026-05-06 15:05 47.45512 8.54736 1404 ft 19 kts 108°
2026-05-06 15:05 47.45492 8.54824 1402 ft 7 kts 108°
2026-05-06 15:05 47.45453 8.54990 1406 ft 27 kts 110°
2026-05-06 15:06 47.45401 8.55207 1413 ft 21 kts 112°
2026-05-06 15:06 47.45402 8.55352 1412 ft 13 kts 21°
2026-05-06 15:06 47.45493 8.55307 1412 ft 16 kts 337°
2026-05-06 15:06 47.45604 8.55231 1408 ft 18 kts 337°
2026-05-06 15:07 47.45673 8.55183 1409 ft 0 kts 333°
2026-05-06 15:07 47.45674 8.55182 1409 ft 1 kts 333°
2026-05-06 15:07 47.45739 8.55135 1411 ft 16 kts 334°
2026-05-06 15:08 47.45852 8.55070 1409 ft 18 kts 354°
2026-05-06 15:08 47.45944 8.55144 1409 ft 15 kts 32°
2026-05-06 15:08 47.46006 8.55227 1409 ft 12 kts 23°
2026-05-06 15:08 47.46063 8.55241 1404 ft 5 kts
2026-05-06 15:09 47.46073 8.55242 1402 ft 3 kts
2026-05-06 15:09 47.46077 8.55243 1402 ft 0 kts